Location: Unspecified
(48.2082°N, 0.0000°E)
Time: 10:32:42
(UTC+00:00)

Vanguard 3 - Visible Passes

Search period start: 05 August 2020 00:00
Search period end: 15 August 2020 00:00
Orbit: 509 x 3261 km, 33.3° (Epoch: 04 August)

Date Brightness Start Highest point End Pass type
(mag) Time Alt. Az. Time Alt. Az. Time Alt. Az.
06 Aug 11.3 03:48:53 10° SSE 03:54:52 13° SE 04:00:11 10° ESE visible
08 Aug 11.2 03:28:16 10° S 03:37:44 16° SE 03:45:51 10° ESE visible
10 Aug 11.1 03:08:41 10° S 03:20:29 20° SE 03:30:33 10° ESE visible
11 Aug 11.3 01:58:34 10° SSE 02:05:19 13° SE 02:11:42 10° ESE visible
11 Aug 10.8 04:03:24 10° SSW 04:18:35 30° SSE 04:30:25 10° ESE visible
12 Aug 11.0 02:49:40 10° S 03:03:06 23° SE 03:14:44 10° ESE visible
13 Aug 11.2 01:39:04 11° SSE 01:47:50 16° SE 01:56:54 10° ESE visible
13 Aug 10.7 03:45:01 10° SSW 04:01:13 34° SSE 04:14:14 10° E visible
14 Aug 10.9 02:33:29 14° S 02:45:35 27° SSE 02:58:34 10° E visible
